www.pogodaiklimat.ru

Погода и климат >> Архив погоды >> Россия >> Красноярский край >> Хатанга


АРХИВ ПОГОДЫ в Хатанге

Время (UTC), дата Ветер
(напр.,м/с)
 
Видим.   Явления Облачность Т
(С)
Тd
(С)
f
(%)
Тe
(С)
Тes
(С)
Комфортность P
(гПа)
Po
(гПа)
Тmin
(С)
Tmax
(С)
R
(мм)
R24
(мм)
S
(см)
09 12.07 СЗ 3 20 км 8/3 600 м
[Sc Ac cuf Ci sp]
+14.2 +6.0 58 +13 +15 по сезону 1010.4 1006.6
12 12.07 С 3 20 км 4/3 600 м
[Sc Ci]
+14.4 +5.8 56 +14 +15 по сезону 1009.9 1006.1 +15.3
15 12.07 СВ 4 20 км 6/3 600 м
[Sc Ac trans]
+11.2 +5.1 66 +9 +9 по сезону 1009.6 1005.7
18 12.07 СВ 4 20 км 8/3 600 м
[Sc Ac trans]
+9.4 +5.8 78 +7 +7 по сезону 1009.2 1005.3
21 12.07 СВ 4 20 км {ливн. осадки} 9/3 600 м
[Sc diur, vesp Ac und]
+8.9 +5.7 80 +6 +6 прохладно 1008.3 1004.4
00 13.07 СВ 4 20 км {ливн. осадки} 9/3 600 м
[Sc diur, vesp Ac und]
+9.2 +6.3 82 +6 +7 прохладно 1008.4 1004.5 +8.4
03 13.07 СВ 3 20 км {ливн. осадки} 10/3 600 м
[Sc Ac trans]
+11.2 +7.4 77 +9 +11 прохладно 1008.5 1004.5
06 13.07 С 4 20 км {ливн. осадки} 10/3 600 м
[Sc Ac trans]
+13.0 +8.2 73 +11 +13 прохладно 1008.6 1004.8
09 13.07 С 4 20 км {ливн. осадки} 10/3 600 м
[Sc Ac trans]
+13.2 +8.0 71 +12 +13 по сезону 1008.9 1005.1
12 13.07 С 5 20 км {ливн. осадки} 10/3 600 м
[Sc Ac trans]
+12.6 +7.5 71 +10 +11 прохладно 1010.2 1006.3 +13.4
15 13.07 СВ 4 20 км 6/4 900 м
[Sc Ac trans Ci fib]
+12.5 +5.3 61 +11 +11 по сезону 1011.6 1007.7
18 13.07 С 2 20 км 4/0
[Ac trans Ci fib]
+10.6 +7.1 79 +9 +9 по сезону 1013.1 1009.2
21 13.07 С 4 20 км 3/0
[Ac trans Ci fib]
+8.5 +5.4 81 +5 +6 прохладно 1015.3 1011.4
00 14.07 СВ 3 20 км 3/0
[Ci fib]
+10.4 +5.9 74 +8 +11 по сезону 1017.0 1013.1 +8.4
03 14.07 С 2 20 км 4/3 600 м
[Cu hum Ci fib]
+12.4 +5.8 64 +12 +17 по сезону 1017.7 1013.8
06 14.07 СЗ 3 20 км 8/3 600 м
[Cu med, cong Ac trans Ci fib]
+16.0 +6.4 53 +16 +19 тепло 1017.8 1014.0
09 14.07 СЗ 5 20 км 6/6 800 м
[Cu med, cong]
+17.6 +7.2 50 +17 +18 тепло 1017.7 1013.9
12 14.07 С 4 20 км 4/0
[Ac cuf Ci fib]
+16.0 +6.1 52 +15 +16 по сезону 1018.3 1014.4 +17.8
15 14.07 С 4 20 км 3/0
[Ac trans]
+13.0 +4.6 57 +11 +12 по сезону 1019.4 1015.4
18 14.07 В 4 20 км 3/0
[Ac trans Ci fib]
+7.7 +3.7 76 +4 +5 холодно 1020.5 1016.5
21 14.07 В 4 20 км 4/0
[Ac trans Ci fib]
+8.0 +3.3 72 +5 +5 прохладно 1020.3 1016.3
00 15.07 В 4 20 км 8/0
[Ac trans Ci fib]
+11.1 +3.6 60 +9 +11 по сезону 1020.1 1016.2 +7.3
03 15.07 В 4 20 км 8/0
[Ac lent Ci fib]
+14.2 +3.3 48 +13 +16 по сезону 1018.9 1015.0
06 15.07 СВ 4 20 км 8/0
[Ac trans Ci fib]
+15.4 +4.6 48 +15 +19 по сезону 1017.8 1013.9
09 15.07 В 5 20 км 8/0
[Ac trans]
+15.7 +4.8 48 +15 +16 по сезону 1016.3 1012.5
12 15.07 В 4 20 км 9/0
[Ac cuf Ci sp]
+15.5 +5.2 50 +15 +15 по сезону 1015.5 1011.7 +16.6
15 15.07 В 3 20 км 9/0
[Ac cuf]
+13.2 +7.1 66 +12 +12 по сезону 1014.6 1010.7
18 15.07 В 2 20 км {ливн. осадки} 9/0
[Ac und]
+11.5 +8.8 83 +10 +10 по сезону 1013.1 1009.2
21 15.07 СВ 3 20 км 9/0
[Ac und]
+12.2 +9.1 81 +11 +11 по сезону 1012.4 1008.5
00 16.07 СВ 3 20 км 9/0
[Ac und]
+12.4 +9.1 80 +11 +12 по сезону 1012.1 1008.2 0.1
03 16.07 В 3 20 км 9/5 900 м
[Sc Ac und]
+15.0 +10.9 76 +14 +16 тепло 1010.8 1007.0
06 16.07 В 3 2000 м 9/8 600 м
[Sc Ac und]
+15.9 +11.8 77 +15 +16 по сезону 1009.6 1005.8
09 16.07 СВ 3 10 км слаб. ливневой дождь 9/8 400 м
[Cb cap Ac und]
+15.9 +13.4 85 +15 +16 по сезону 1008.0 1004.2
12 16.07 С 5
{10}
20 км {ливн. осадки} 9/9 300 м
[Sc]
+13.6 +12.5 93 +12 +12 по сезону 1009.2 1005.4 +16.4 4
15 16.07 С 5
{10}
20 км {ливн. осадки} 9/9 630 м
[Sc diur, vesp]
+11.9 +10.2 89 +9 +9 прохладно 1012.0 1008.1
18 16.07 С 5
{10}
20 км {ливн. осадки} 9/9 600 м
[Sc]
+11.1 +8.7 85 +8 +8 по сезону 1014.9 1011.0
21 16.07 СВ 5 20 км 8/6 720 м
[Sc Ac trans]
+10.3 +8.7 90 +7 +7 прохладно 1017.5 1013.6
00 17.07 С 5 20 км 8/6 600 м
[Sc Ac trans Ci fib]
+11.0 +8.5 85 +8 +9 по сезону 1020.4 1016.5 +10.0
03 17.07 С 4 20 км 4/0
[Ac trans Ci fib]
+14.0 +9.5 74 +13 +17 по сезону 1022.5 1018.6
06 17.07 СВ 4 20 км 4/3 600 м
[Sc Ci fib]
+16.3 +7.3 55 +16 +20 тепло 1023.7 1019.8
09 17.07 СВ 3 20 км 4/3 600 м
[Sc Ci fib]
+17.0 +8.1 56 +17 +20 тепло 1024.2 1020.4
12 17.07 СВ 4 20 км 4/3 600 м
[Sc Ci fib]
+17.2 +8.3 56 +17 +18 тепло 1024.6 1020.8 +17.9
18 17.07 С 3 20 км 3/3 600 м
[Sc]
+12.9 +8.3 74 +12 +12 тепло 1025.5 1021.6
21 17.07 СВ 3 20 км 4/4 600 м
[Sc]
+10.5 +8.0 84 +8 +9 по сезону 1026.0 1022.1
00 18.07 В 4 20 км 8/4 930 м
[Sc Ac cuf Ci sp]
+12.4 +7.5 72 +11 +12 по сезону 1027.0 1023.1 +9.7
03 18.07 В 6
{10}
20 км 3/3 800 м
[Cu hum]
+14.9 +5.6 54 +13 +15 по сезону 1027.6 1023.7
06 18.07 В 6
{10}
20 км 4/4 1000 м
[Cu hum]
+16.3 +4.8 46 +15 +17 по сезону 1027.9 1024.0
09 18.07 В 5 20 км 1/0
[Ci sp]
+17.7 +4.1 40 +17 +20 тепло 1027.7 1023.8
12 18.07 В 5 20 км 1/0
[Ci fib]
+17.6 +2.9 37 +17 +18 тепло 1027.8 1023.9 +18.1
15 18.07 ЮВ 4 20 км 1/0
[Ci fib]
+14.3 +3.6 49 +13 +13 по сезону 1027.8 1023.9
18 18.07 В 4 20 км 1/0
[Ci fib]
+9.9 +5.1 72 +7 +7 по сезону 1027.9 1023.9
21 18.07 ЮВ 4 20 км 1/0
[Ci fib]
+11.2 +6.1 71 +9 +10 по сезону 1027.6 1023.7
00 19.07 ЮВ 4 20 км 1/0
[Ci fib]
+15.8 +6.5 54 +15 +17 тепло 1027.7 1023.8 +9.6
03 19.07 Ю 4 20 км ясно +19.2 +5.9 42 +20 +25 тепло 1026.7 1022.8

 

Местоположение метеостанции Хатанга (Красноярский край, Россия): широта 71.98 долгота 102.47 высота над уровнем моря 33 м.

В архиве по умолчанию представлена погода в Хатанге за последнюю неделю. Архивные данные за месяц целиком и за предыдущие месяцы, начиная с января 2011 года, Вы можете получить, выбрав интересующий диапазон дат из раскрывающегося списка и нажав кнопку "Ввод!".


*Определитесь, кто Вы:
робот инопланетянин человек

Внимание! Время в таблицах - всемирное. Для получения местного времени необходимо прибавить поправку, которая равна 7 ч.

Смотрите также архив погоды в соседних городах и на ближайших метеорологических станциях:

Погода в Волочанке (Красноярский край, Россия) (303 км)
Погода в Анабаре (Якутия, Россия) (391 км)
Погода в Саскылахе (Якутия, Россия) (396 км)
Погода на Острове Преображения (Якутия, Россия) (447 км)
Погода в Джалинде (Якутия, Россия) (460 км)
Погода в Крестах Таймырских (Красноярский край, Россия) (462 км)
Погода в Оленеке (Якутия, Россия) (537 км)
Погода на Мысе Стерлегова (Красноярский край, Россия) (568 км)
Погода в Ярольине (Якутия, Россия) (587 км)
Погода на Усть-Оленеке (Якутия, Россия) (589 км)

Пояснения к столбцам:

Ветер - указаны скорость ветра в м/с - средняя за 10 мин, порывы в срок и между сроками (в фигурных скобках) и направление, откуда дует ветер: С - северный, СВ - северо-восточный, В - восточный, ЮВ - юго-восточный, Ю - южный, ЮЗ - юго-западный, З - западный, СЗ - северо-западный.
Видимость - горизонтальная дальность видимости в метрах или километрах. При видимости от 1 до 10 км при отсутствии осадков обычно наблюдается дымка, при ухудшении видимости до 1 км и менее - туман. В сухую погоду видимость может ухудшаться дымом, пылью или мглою.
Явления - указаны атмосферные явления, наблюдавшиеся в срок или в последний час перед сроком; фигурными скобками обозначены явления, наблюдавшиеся между сроками (за 1-3 часа до срока); квадратными скобками обозначены град или гололедные отложения с указанием их диаметра в мм.
Облачность - указаны через наклонную черту общая и нижняя облачность в баллах и высота нижней границы облаков в метрах; квадратными скобками обозначены формы облаков: Ci - перистые, Cs - перисто-слоистые, Cc - перисто-кучевые, Ac - высококучевые, As - высокослоистые, Sc - слоисто-кучевые, Ns - слоисто-дождевые, Cu - кучевые, Cb - кучево-дождевые. Подробнее классификацию облаков см. в Атласе облаков (PDF).
T - Температура воздуха - температура, измеренная на высоте 2 м над землей.
Td - Температура точки росы - температура, при понижении до которой содержащийся в воздухе водяной пар достигнет насыщения.
f - Относительная влажность воздуха - влажноcть воздуха, измеренная на высоте 2 м над землей.
Te - Эффективная температура - температура, которую ощущает одетый по сезону человек в тени. Характеристика душности погоды. При расчете учитывается влияние влажности воздуха и скорости ветра на теплоощущения человека.
Tes - Эффективная температура на солнце - температура, которую ощущает человек, с поправкой на солнечный нагрев. Характеристика знойности погоды. Зависит от высоты солнца над горизонтом, облачности и скорости ветра. Ночью, в пасмурную погоду, а также при ветре 12 м/с и более поправка равна нулю.
P - Атмосферное давление - приведенное к уровню моря атмосферное давление.
Po - Атмосферное давление - измеренное на уровне метеостанции атмосферное давление.
Tmin - Минимальная температура - минимум температуры воздуха на высоте 2 м над землей.
Tmax - Максимальная температура - максимум температуры воздуха на высоте 2 м над землей.
R - Количество осадков - Количество выпавших осадков за период времени, мм. При наведении курсора мыши на число - период времени, за который выпало указанное количество осадков.
R24 - Количество осадков - Количество выпавших осадков за 24 часа, мм.
S - Снежный покров - Высота снежного покрова, см. При наведении курсора мыши на число - состояние снежного покрова и степень покрытия местности в баллах.